Location: Newark
(44.5425°N, 10.7801°E)
Time: 02:33:45
(UTC+00:00)

N. Korean satellite - Pass Details

Date: 31 January 2020
Orbit: 456 x 505 km, 97.2° (Epoch: 26 February)

Event Time Altitude Azimuth Distance (km) Brightness Sun altitude
Rises 16:53:30 0° 193° (SSW) 2,461 10.6 -5.8°
Reaches altitude 10° 16:55:46 10° 207° (SSW) 1,595 9.9 -6.2°
Maximum altitude 16:58:39 25° 265° (W) 963 9.2 -6.7°
Drops below altitude 10° 17:01:35 10° 323° (NW) 1,620 9.5 -7.2°
Sets 17:03:54 0° 336° (NNW) 2,508 10.3 -7.6°
